Date String (YYYY-MM-DD hh:mm:ss) UTC,Instrument flags,absolute air pressure of the measurement (hPa),sample flow rate (lpm),inlet stack bypass flow (lpm),air temperature of the measurement (°C),ambient temperature measured by the external sensor (°C),aerosol sample conditioner tube jacket temperature (°C),OPC LED temperature (°C),internal box temperature (°C),relative humidity of the measurement (%),span deviation,mass concentration of particles derived from Lorenz-Mie calculation of OPC scattering (μg/m³),mass concentration of particles derived from Lorenz-Mie calculation of OPC scattering (μg/m³),mass concentration of particles derived from Lorenz-Mie calculation of OPC scattering (μg/m³)
DateTimeUTC,F1_M11,P_M11,Q1_M11,Q2_M11,T1_M11,T2_M11,T3_M11,T4_M11,T5_M11,U1_M11,ZSPAN_M11,X0_M11,X2_M11,X1_M11
2024-03-31 11:00:00,SystemResetWarning,0819.2,5.00,000.00,021.7,020.8,000.0,030.4,023.6,22.5,0000.0,0010.35,0004.56,0003.90
2024-03-31 11:01:00,SystemResetWarning,0819.4,5.00,000.00,021.7,020.8,000.0,030.4,023.5,22.4,0000.0,0010.42,0004.64,0003.92
2024-03-31 11:02:00,SystemResetWarning,0819.1,5.00,000.00,021.7,020.9,000.0,030.4,023.5,22.3,0000.0,0010.76,0004.67,0003.93
2024-03-31 11:03:00,SystemResetWarning,0819.1,4.99,000.00,021.7,020.9,000.0,030.3,023.5,22.3,0000.0,0010.83,0004.68,0003.96
2024-03-31 11:04:00,SystemResetWarning,0819.1,5.00,000.00,021.7,020.9,000.0,030.3,023.5,22.2,0000.0,0010.73,0004.67,0003.97
2024-03-31 11:05:00,SystemResetWarning,0819.0,5.00,000.00,021.7,020.9,000.0,030.3,023.5,22.1,0000.0,0009.77,0004.64,0003.97
2024-03-31 11:06:00,SystemResetWarning,0819.0,5.01,000.00,021.6,020.9,000.0,030.3,023.5,22.0,0000.0,0010.32,0004.69,0003.97
2024-03-31 11:07:00,SystemResetWarning,0819.0,5.01,000.00,021.6,020.9,000.0,030.3,023.5,22.0,0000.0,0010.81,0004.72,0003.96
2024-03-31 11:08:00,SystemResetWarning,0819.0,4.99,000.00,021.6,020.9,000.0,030.3,023.5,22.0,0000.0,0010.56,0004.70,0003.95
2024-03-31 11:09:00,SystemResetWarning,0819.0,4.99,000.00,021.6,020.9,000.0,030.3,023.5,22.1,0000.0,0010.67,0004.69,0003.96
2024-03-31 11:10:00,SystemResetWarning,0819.1,5.00,000.00,021.6,020.8,000.0,030.3,023.5,22.1,0000.0,0011.23,0004.70,0003.96
2024-03-31 11:11:00,SystemResetWarning,0819.1,5.01,000.00,021.6,020.8,000.0,030.3,023.5,22.1,0000.0,0011.16,0004.69,0003.95
2024-03-31 11:12:00,SystemResetWarning,0819.2,5.01,000.00,021.6,020.8,000.0,030.3,023.5,22.1,0000.0,0011.51,0004.68,0003.95
2024-03-31 11:13:00,SystemResetWarning,0819.1,4.99,000.00,021.6,020.8,000.0,030.3,023.5,22.1,0000.0,0011.49,0004.66,0003.94
2024-03-31 11:14:00,SystemResetWarning,0819.1,4.99,000.00,021.6,020.8,000.0,030.3,023.4,22.2,0000.0,0011.91,0004.65,0003.92
2024-03-31 11:15:00,SystemResetWarning,0819.1,5.00,000.00,021.6,020.8,000.0,030.3,023.4,22.2,0000.0,0012.34,0004.63,0003.92
2024-03-31 11:16:00,SystemResetWarning,0819.2,5.01,000.00,021.6,020.7,000.0,030.3,023.4,22.3,0000.0,0012.44,0004.67,0003.93
2024-03-31 11:17:00,SystemResetWarning,0819.2,5.00,000.00,021.6,020.7,000.0,030.3,023.4,22.3,0000.0,0011.89,0004.68,0003.94
2024-03-31 11:18:00,SystemResetWarning,0819.2,4.99,000.00,021.6,020.7,000.0,030.2,023.4,22.1,0000.0,0011.24,0004.69,0003.94
2024-03-31 11:19:00,SystemResetWarning,0819.2,4.99,000.00,021.5,020.7,000.0,030.2,023.4,22.0,0000.0,0011.05,0004.67,0003.94
2024-03-31 11:20:00,SystemResetWarning,0819.1,4.99,000.00,021.5,020.7,000.0,030.2,023.4,21.9,0000.0,0010.82,0004.65,0003.93
2024-03-31 11:21:00,SystemResetWarning,0819.1,5.01,000.00,021.5,020.7,000.0,030.2,023.4,21.8,0000.0,0010.25,0004.60,0003.91
2024-03-31 11:22:00,SystemResetWarning,0819.0,5.02,000.00,021.5,020.7,000.0,030.2,023.3,21.8,0000.0,0010.25,0004.56,0003.89
2024-03-31 11:23:00,SystemResetWarning,0819.0,5.00,000.00,021.5,020.7,000.0,030.2,023.3,21.8,0000.0,0009.53,0004.51,0003.86
2024-03-31 11:24:00,SystemResetWarning,0819.1,5.00,000.00,021.5,020.7,000.0,030.2,023.3,21.9,0000.0,0009.27,0004.47,0003.84
2024-03-31 11:25:00,SystemResetWarning,0819.1,5.00,000.00,021.5,020.7,000.0,030.2,023.3,22.1,0000.0,0009.32,0004.40,0003.82
2024-03-31 11:26:00,SystemResetWarning,0819.1,5.00,000.00,021.5,020.7,000.0,030.2,023.3,22.2,0000.0,0008.74,0004.37,0003.81
2024-03-31 11:27:00,SystemResetWarning,0819.2,5.00,000.00,021.5,020.7,000.0,030.2,023.3,22.1,0000.0,0008.95,0004.32,0003.80
2024-03-31 11:28:00,SystemResetWarning,0819.1,5.00,000.00,021.4,020.6,000.0,030.2,023.3,22.1,0000.0,0009.15,0004.27,0003.77
2024-03-31 11:29:00,SystemResetWarning,0819.1,5.00,000.00,021.4,020.6,000.0,030.1,023.3,22.1,0000.0,0009.68,0004.23,0003.75
2024-03-31 11:30:00,SystemResetWarning,0819.1,5.01,000.00,021.4,020.6,000.0,030.1,023.3,22.3,0000.0,0010.68,0004.22,0003.75
2024-03-31 11:31:00,SystemResetWarning,0819.1,5.00,000.00,021.4,020.6,000.0,030.1,023.3,22.9,0000.0,0010.84,0004.23,0003.78
2024-03-31 11:32:00,SystemResetWarning,0819.1,5.00,000.00,021.4,020.6,000.0,030.1,023.3,23.4,0000.0,0010.93,0004.28,0003.81
2024-03-31 11:33:00,SystemResetWarning,0819.1,5.00,000.00,021.4,020.6,000.0,030.1,023.2,22.6,0000.0,0010.92,0004.33,0003.83
2024-03-31 11:34:00,SystemResetWarning,0819.0,5.01,000.00,021.4,020.6,000.0,030.1,023.2,22.3,0000.0,0010.83,0004.34,0003.84
2024-03-31 11:35:00,SystemResetWarning,0819.1,5.00,000.00,021.4,020.6,000.0,030.1,023.2,22.4,0000.0,0010.89,0004.39,0003.86
2024-03-31 11:36:00,SystemResetWarning,0819.1,5.00,000.00,021.4,020.6,000.0,030.1,023.2,22.6,0000.0,0010.52,0004.47,0003.89
2024-03-31 11:37:00,SystemResetWarning,0819.1,5.00,000.00,021.4,020.6,000.0,030.1,023.2,22.7,0000.0,0010.91,0004.52,0003.93
2024-03-31 11:38:00,SystemResetWarning,0819.1,5.00,000.00,021.3,020.5,000.0,030.0,023.2,23.1,0000.0,0010.83,0004.61,0004.03
2024-03-31 11:39:00,SystemResetWarning,0819.2,5.00,000.00,021.3,020.5,000.0,030.0,023.2,23.2,0000.0,0010.31,0004.72,0004.13
2024-03-31 11:40:00,SystemResetWarning,0819.3,4.99,000.00,021.3,020.5,000.0,030.0,023.2,23.3,0000.0,0010.32,0004.82,0004.24
2024-03-31 11:41:00,SystemResetWarning,0819.2,5.00,000.00,021.3,020.5,000.0,030.0,023.2,23.4,0000.0,0010.28,0005.03,0004.39
2024-03-31 11:42:00,SystemResetWarning,0819.2,5.00,000.00,021.3,020.5,000.0,030.0,023.2,23.5,0000.0,0009.85,0005.16,0004.50
2024-03-31 11:43:00,SystemResetWarning,0819.3,4.99,000.00,021.3,020.5,000.0,030.0,023.1,23.5,0000.0,0010.06,0005.28,0004.61
2024-03-31 11:44:00,SystemResetWarning,0819.2,5.00,000.00,021.3,020.5,000.0,030.0,023.1,23.6,0000.0,0010.31,0005.41,0004.74
2024-03-31 11:45:00,SystemResetWarning,0819.3,5.00,000.00,021.3,020.5,000.0,030.0,023.1,23.7,0000.0,0010.51,0005.56,0004.88
2024-03-31 11:46:00,SystemResetWarning,0819.3,5.00,000.00,021.3,020.5,000.0,030.0,023.1,23.7,0000.0,0010.77,0005.70,0005.04
2024-03-31 11:47:00,SystemResetWarning,0819.3,5.00,000.00,021.3,020.5,000.0,030.0,023.1,23.6,0000.0,0010.77,0005.82,0005.17
2024-03-31 11:48:00,SystemResetWarning,0819.3,5.00,000.00,021.2,020.5,000.0,030.0,023.1,23.5,0002.0,0010.26,0005.93,0005.29
2024-03-31 11:49:00,SystemResetWarning,0819.2,5.00,000.00,021.2,020.5,000.0,029.9,023.1,23.6,0001.8,0010.35,0006.00,0005.36
2024-03-31 11:50:00,SystemResetWarning,0819.2,5.00,000.00,021.2,020.4,000.0,029.9,023.1,23.6,0001.1,0011.17,0006.08,0005.41
2024-03-31 11:51:00,SystemResetWarning,0819.2,5.01,000.00,021.2,020.4,000.0,029.9,023.1,23.5,0000.3,0011.53,0006.15,0005.47
2024-03-31 11:52:00,SystemResetWarning,0819.2,5.00,000.00,021.2,020.5,000.0,029.9,023.1,23.6,0001.8,0010.93,0006.16,0005.50
2024-03-31 11:53:00,SystemResetWarning,0819.3,5.00,000.00,021.2,020.5,000.0,029.9,023.1,23.5,0002.0,0011.19,0006.22,0005.54
2024-03-31 11:54:00,SystemResetWarning,0819.3,4.99,000.00,021.2,020.5,000.0,029.9,023.0,23.5,0002.1,0011.14,0006.24,0005.58
2024-03-31 11:55:00,SystemResetWarning,0819.3,5.01,000.00,021.2,020.5,000.0,029.9,023.0,23.5,0001.9,0010.94,0006.26,0005.62
2024-03-31 11:56:00,SystemResetWarning,0819.3,5.00,000.00,021.2,020.4,000.0,029.9,023.0,23.5,0001.6,0011.11,0006.27,0005.64
2024-03-31 11:57:00,SystemResetWarning,0819.3,5.01,000.00,021.2,020.4,000.0,029.9,023.0,23.5,0001.4,0011.01,0006.27,0005.67
2024-03-31 11:58:00,SystemResetWarning,0819.3,5.01,000.00,021.2,020.4,000.0,029.8,023.0,23.5,0001.2,0011.33,0006.28,0005.69
2024-03-31 11:59:00,SystemResetWarning,0819.3,5.00,000.00,021.2,020.4,000.0,029.8,023.0,23.5,0000.6,0011.86,0006.27,0005.70
